Flag for U.S.A. Weather past 2 weeks in Wright, Florida, U.S.A.

Now
65 °F

Drizzle. Fog.


Feels Like: 65 °F
Forecast: 61 / 69 °F
Wind: 3 mph from Southeast

Location: Hurlburt Field

Current Time: Mar 3, 2015 at 6:43:12 PM

Latest Report: Mar 3, 2015 at 5:58 PM


Visibility: 1 mi

Pressure: 30.09 "Hg

Humidity: 85%

Dew point: 60 °F

Location of WrightLocation

Historic Weather in Wright — Graph

°F

Wright temperature yesterday

Maximum temperature yesterday: 66 °F (at 10:58 AM)
Minimum temperature yesterday: 55 °F (at 12:58 AM)
Average temperature yesterday: 61 °F

Past Weeks' High & Low Weather Summary

 TemperatureHumidityPressure
High71 °F (Feb 22, 1:58 PM)94% (Feb 22, 5:58 PM)30.46 "Hg (Feb 22, 5:58 PM)
Low26 °F (Feb 19, 5:58 AM)12% (Feb 19, 3:58 PM)29.57 "Hg (Feb 25, 5:58 PM)
Average50 °F69%30.17 "Hg
* Reported Feb 16 4:58 PM — Mar 3 4:58 PM, Wright, Weather by CustomWeather, © 2015

Note: Actual official high and low records may vary slightly from our data, if they occured in-between our weather recording intervals... More about our weather records

Advertising

Wright weather history for previous 24 hours

 ConditionsComfort  
Time TempWeatherWind HumidityBarometerVisibility
4:58 PM
Tue, Mar 3
64 °FFog.3 mph84%30.09 "Hg3 mi
3:59 PM64 °FLow clouds.6 mph83%30.09 "Hg10 mi
2:58 PM65 °FFog.8 mph83%30.11 "Hg1 mi
1:58 PM64 °FFog.6 mph83%30.12 "Hg1 mi
12:58 PM64 °FFog.8 mph89%30.16 "Hg3 mi
11:58 AM63 °FFog.8 mph94%30.19 "Hg1 mi
10:58 AM63 °FFog.7 mph90%30.19 "Hg1 mi
10:49 AM63 °FFog.6 mph94%30.20 "Hg1 mi
10:00 AM63 °FFog.6 mph94%30.20 "Hg1 mi
8:59 AM63 °FFog.3 mph90%30.19 "Hg1 mi
7:58 AM62 °FFog.5 mph90%30.17 "Hg1 mi
6:58 AM60 °FFog.3 mph90%30.17 "Hg0 mi
5:58 AM61 °FLight rain. Fog.2 mph90%30.17 "Hg0 mi
4:58 AM60 °FFog.3 mph92%30.16 "Hg0 mi
3:58 AM60 °FDrizzle. Fog.3 mph91%30.16 "Hg0 mi
2:58 AM60 °FDrizzle. Fog.6 mph91%30.16 "Hg0 mi
1:58 AM60 °FFog.2 mph92%30.17 "Hg0 mi
12:58 AM61 °FFog.No wind92%30.19 "Hg0 mi
12:03 AM63 °FFog.1 mph94%30.20 "Hg3 mi
11:02 PM
Mon, Mar 2
63 °FDrizzle. Fog.No wind94%30.22 "Hg1 mi
9:58 PM63 °FLight rain. Fog.No wind94%30.23 "Hg1 mi
9:04 PM63 °FLight rain. Fog.5 mph94%30.23 "Hg0 mi
8:58 PM63 °FDrizzle. Fog.3 mph91%30.24 "Hg0 mi
8:04 PM64 °FOvercast.No wind88%30.22 "Hg10 mi
7:58 PM64 °FLight rain. Low clouds.3 mph91%30.22 "Hg10 mi
7:00 PM64 °FLight rain. Fog.No wind88%30.22 "Hg1 mi
6:57 PM64 °FLight rain. Fog.No wind88%30.22 "Hg1 mi
Weather by CustomWeather, © 2015

See weather overviewHow to use our weather pages